Poplar Bluff, MO

2:35 PM CDT on April 27, 2017 (GMT -0500)
Poplar Bluff Municipal

Weather History for KPOF - February, 2014

Change the Weather History Date:

Tuesday, February 25, 2014

  Actual Average Record
Temperature  
Mean Temperature 36 °F -  
Max Temperature 42 °F 50 °F 81 °F (1918)
Min Temperature 30 °F 30 °F 7 °F (1967)
Degree Days  
Heating Degree Days 29    
Moisture  
Dew Point 19 °F    
Average Humidity 51    
Maximum Humidity 69    
Minimum Humidity 43    
Precipitation  
Precipitation 0.00 in - - ()
Sea Level Pressure  
Sea Level Pressure 30.22 in    
Wind  
Wind Speed 9 mph (NNE)    
Max Wind Speed 16 mph    
Max Gust Speed 21 mph    
Visibility 10 miles    
Events      
Averages and records for this station are not official NWS values.
T = Trace of Precipitation, MM = Missing Value Source: NWS Daily Summary

Daily Weather History Graph

Daily Weather History Graph

Search for Another Location

Airport or City:

Trip Planner

Search our weather history database for the weather conditions in past years. The results will help you decide how hot, cold, wet, or windy it might be!

Date:

Astronomy

Feb. 25, 2014 Rise Set
Actual Time 6:37 AM CST 5:51 PM CST
Civil Twilight 6:11 AM CST 6:17 PM CST
Nautical Twilight 5:41 AM CST 6:48 PM CST
Astronomical Twilight 5:11 AM CST 7:18 PM CST
Moon 3:28 AM CST (2/25) 2:01 PM CST (2/25)
Length of Visible Light 12h 06m
Length of Day
11h 14m
Waning Crescent, 18% of the Moon is Illuminated
Feb 25
Waning Crescent
Mar 1
New
Mar 8
First Quarter
Mar 16
Full
Mar 23
Last Quarter

Hourly Weather History & Observations

Time (CST) Temp. Windchill Dew Point Humidity Pressure Visibility Wind Dir Wind Speed Gust Speed Precip Events Conditions
12:53 AM 36.0 °F 31.1 °F 17.1 °F 46% 30.20 in 10.0 mi NE 5.8 mph - N/A   Overcast
1:53 AM 34.0 °F 28.0 °F 19.0 °F 54% 30.19 in 10.0 mi NNE 6.9 mph - N/A   Scattered Clouds
2:53 AM 35.1 °F 30.1 °F 19.0 °F 52% 30.20 in 10.0 mi North 5.8 mph - N/A   Overcast
3:53 AM 32.0 °F 28.7 °F 19.9 °F 61% 30.19 in 10.0 mi NNE 3.5 mph - N/A   Partly Cloudy
4:53 AM 30.0 °F 26.5 °F 21.0 °F 69% 30.20 in 10.0 mi North 3.5 mph - N/A   Clear
5:53 AM 30.0 °F 21.1 °F 19.0 °F 64% 30.22 in 10.0 mi North 10.4 mph - N/A   Clear
6:53 AM 32.0 °F 24.2 °F 17.1 °F 54% 30.22 in 10.0 mi NNE 9.2 mph - N/A   Clear
7:53 AM 33.1 °F 23.4 °F 17.1 °F 52% 30.25 in 10.0 mi NE 13.8 mph - N/A   Clear
8:53 AM 35.1 °F 27.4 °F 18.0 °F 50% 30.26 in 10.0 mi NE 10.4 mph - N/A   Clear
9:53 AM 37.0 °F 28.9 °F 19.9 °F 50% 30.26 in 10.0 mi NE 12.7 mph - N/A   Clear
10:53 AM 39.0 °F 31.8 °F 19.0 °F 45% 30.25 in 10.0 mi NE 11.5 mph - N/A   Clear
11:53 AM 41.0 °F 35.8 °F 19.9 °F 43% 30.23 in 10.0 mi ENE 8.1 mph - N/A   Clear
12:53 PM 41.0 °F 35.2 °F 19.9 °F 43% 30.20 in 10.0 mi NE 9.2 mph - N/A   Clear
1:53 PM 42.1 °F 37.1 °F 21.0 °F 43% 30.20 in 10.0 mi ENE 8.1 mph - N/A   Clear
2:53 PM 41.0 °F 33.9 °F 21.0 °F 45% 30.18 in 10.0 mi NE 12.7 mph - N/A   Clear
3:53 PM 42.1 °F 35.7 °F 21.0 °F 43% 30.18 in 10.0 mi NNE 11.5 mph - N/A   Clear
4:53 PM 39.0 °F 31.0 °F 19.9 °F 46% 30.19 in 10.0 mi NE 13.8 mph - N/A   Clear
5:53 PM 37.9 °F 29.2 °F 19.0 °F 47% 30.19 in 10.0 mi North 15.0 mph - N/A   Overcast
6:53 PM 36.0 °F 29.0 °F 19.9 °F 52% 30.21 in 10.0 mi NE 9.2 mph - N/A   Mostly Cloudy
7:53 PM 34.0 °F 26.0 °F 19.0 °F 54% 30.22 in 10.0 mi NNE 10.4 mph - N/A   Clear
8:53 PM 32.0 °F 21.6 °F 18.0 °F 56% 30.24 in 10.0 mi NNE 15.0 mph - N/A   Clear
9:53 PM 32.0 °F 21.2 °F 16.0 °F 52% 30.25 in 10.0 mi NNE 16.1 mph - N/A   Overcast
10:53 PM 30.9 °F 21.7 °F 16.0 °F 54% 30.25 in 10.0 mi North 11.5 mph 20.7 mph N/A   Scattered Clouds
11:53 PM 30.0 °F 18.7 °F 16.0 °F 56% 30.25 in 10.0 mi North 16.1 mph - N/A   Mostly Cloudy